Weather History for Reading, PA

Change the Weather History Date:

Sunday, January 12, 2014

  Actual Average Record
Temperature  
Mean Temperature 38 °F 30 °F  
Max Temperature 47 °F 37 °F 61 °F (1913)
Min Temperature 29 °F 22 °F -7 °F (1981)
Degree Days  
Heating Degree Days 27 35  
Month to date heating degree days 483 419  
Since 1 July heating degree days 2471 2450  
Cooling Degree Days 0 0  
Month to date cooling degree days 0 0  
Year to date cooling degree days 0 0  
Moisture  
Dew Point 29 °F    
Average Humidity 74    
Maximum Humidity 93    
Minimum Humidity 55    
Precipitation  
Precipitation 0.00 in 0.11 in 1.70 in (1915)
Month to date precipitation 2.87 1.33  
Year to date precipitation 2.87 1.33  
Sea Level Pressure  
Sea Level Pressure 29.87 in    
Wind  
Wind Speed 10 mph (WNW)    
Max Wind Speed 24 mph    
Max Gust Speed 31 mph    
Visibility 10 miles    
Events      
T = Trace of Precipitation, MM = Missing Value Source: NWS Daily Summary

Daily Weather History Graph

Daily Weather History Graph

Search for Another Location

Airport:

Trip Planner

Search our weather history database for the weather conditions in past years. The results will help you decide how hot, cold, wet, or windy it might be!

Date:

Astronomy

Jan. 12, 2014 Rise Set
Actual Time 7:25 AM EST 4:58 PM EST
Civil Twilight 6:55 AM EST 5:28 PM EST
Nautical Twilight 6:22 AM EST 6:02 PM EST
Astronomical Twilight 5:49 AM EST 6:35 PM EST
Moon 2:25 PM EST (1/12) 4:22 AM EST (1/12)
Length of Visible Light 10h 33m
Length of Day
9h 32m
Waxing Gibbous, 89% of the Moon is Illuminated
Jan 12
Waxing Gibbous
Jan 15
Full
Jan 24
Last Quarter
Jan 30
New
Feb 6
First Quarter

Hourly Weather History & Observations

Time (EST) Temp. Windchill Dew Point Humidity Pressure Visibility Wind Dir Wind Speed Gust Speed Precip Events Conditions
12:54 AM 46.9 °F - 39.0 °F 74% 29.52 in 10.0 mi WNW 10.4 mph - N/A   Overcast
1:54 AM 44.1 °F 36.2 °F 33.1 °F 65% 29.57 in 10.0 mi NW 18.4 mph 24.2 mph N/A   Scattered Clouds
2:54 AM 45.0 °F 38.2 °F 32.0 °F 60% 29.60 in 10.0 mi West 15.0 mph - N/A   Overcast
3:54 AM 43.0 °F 34.5 °F 30.0 °F 60% 29.62 in 10.0 mi WNW 19.6 mph 29.9 mph N/A   Mostly Cloudy
4:54 AM 42.1 °F 35.7 °F 30.0 °F 62% 29.65 in 10.0 mi WNW 11.5 mph 24.2 mph N/A   Overcast
5:54 AM 42.1 °F 35.2 °F 28.0 °F 58% 29.68 in 10.0 mi WNW 12.7 mph - N/A   Overcast
6:54 AM 41.0 °F 33.5 °F 27.0 °F 57% 29.72 in 10.0 mi WNW 13.8 mph - N/A   Overcast
7:54 AM 41.0 °F 32.8 °F 28.0 °F 60% 29.77 in 10.0 mi WNW 16.1 mph 23.0 mph N/A   Overcast
8:54 AM 39.9 °F 35.1 °F 28.9 °F 65% 29.83 in 10.0 mi WNW 6.9 mph - N/A   Overcast
9:54 AM 41.0 °F 33.5 °F 28.9 °F 62% 29.87 in 10.0 mi West 13.8 mph - N/A   Overcast
10:54 AM 42.1 °F 33.3 °F 28.0 °F 58% 29.88 in 10.0 mi WNW 19.6 mph 26.5 mph N/A   Overcast
11:54 AM 42.1 °F 36.1 °F 28.0 °F 58% 29.89 in 10.0 mi WNW 10.4 mph 19.6 mph N/A   Overcast
12:54 PM 42.1 °F 36.1 °F 28.9 °F 60% 29.90 in 10.0 mi WNW 10.4 mph - N/A   Overcast
1:54 PM 42.1 °F 33.9 °F 28.0 °F 58% 29.91 in 10.0 mi WNW 17.3 mph 24.2 mph N/A   Overcast
2:54 PM 43.0 °F 37.2 °F 28.9 °F 58% 29.96 in 10.0 mi West 10.4 mph 21.9 mph N/A   Overcast
3:54 PM 43.0 °F 36.4 °F 28.0 °F 56% 29.99 in 10.0 mi West 12.7 mph - N/A   Overcast
4:54 PM 42.1 °F 38.4 °F 28.0 °F 58% 30.01 in 10.0 mi WNW 5.8 mph - N/A   Overcast
5:54 PM 39.9 °F 35.8 °F 28.9 °F 65% 30.05 in 10.0 mi WNW 5.8 mph - N/A   Overcast
6:54 PM 39.0 °F 34.8 °F 28.0 °F 65% 30.06 in 10.0 mi WNW 5.8 mph - N/A   Mostly Cloudy
7:54 PM 37.0 °F 34.5 °F 27.0 °F 67% 30.08 in 10.0 mi WNW 3.5 mph - N/A   Clear
8:54 PM 35.1 °F 32.2 °F 27.0 °F 72% 30.09 in 10.0 mi West 3.5 mph - N/A   Clear
9:54 PM 33.1 °F - 27.0 °F 78% 30.10 in 10.0 mi Calm Calm - N/A   Clear
10:54 PM 30.9 °F - 26.1 °F 82% 30.11 in 10.0 mi Calm Calm - N/A   Clear
11:54 PM 30.0 °F - 26.1 °F 85% 30.12 in 10.0 mi Calm Calm - N/A   Clear